• în Republica Moldova
  • Lista ţărilor
  • Pe 7 zile
  • Temperatura apei
  • Hartă satelitară
  • Meteo pe hartă
  • Widget-uri
  • user-avatar
    Intrare

    Meteo pe oră la Sumgait

    Astăzi, 25 Aprilie, Miercuri

    Timp Temperatura Precipitaţii Vânt Presiune Umiditate
    00:00 +11°C° 0 mm 1 m/s 746 mmHg 67%
    01:00 +10°C° 0 mm 2 m/s 746 mmHg 68%
    02:00 +10°C° 0 mm 2 m/s 746 mmHg 69%
    03:00 +9°C° 0 mm 2 m/s 745 mmHg 70%
    04:00 +10°C° 0 mm 3 m/s 745 mmHg 71%
    05:00 +10°C° 0 mm 3 m/s 745 mmHg 71%
    06:00 +10°C° 0 mm 4 m/s 745 mmHg 72%
    07:00 +11°C° 0 mm 4 m/s 745 mmHg 70%
    08:00 +12°C° 0 mm 5 m/s 745 mmHg 69%
    09:00 +13°C° 0 mm 6 m/s 745 mmHg 68%
    10:00 +14°C° 0 mm 6 m/s 745 mmHg 65%
    11:00 +15°C° 0 mm 6 m/s 745 mmHg 62%
    12:00 +16°C° 0 mm 7 m/s 744 mmHg 59%
    13:00 +16°C° 0 mm 7 m/s 744 mmHg 58%
    14:00 +17°C° 0 mm 7 m/s 743 mmHg 57%
    15:00 +17°C° 0 mm 7 m/s 743 mmHg 56%
    16:00 +17°C° 0 mm 7 m/s 743 mmHg 58%
    17:00 +16°C° 0 mm 6 m/s 742 mmHg 61%
    18:00 +15°C° 0 mm 6 m/s 742 mmHg 64%
    19:00 +14°C° 0 mm 5 m/s 742 mmHg 67%
    20:00 +14°C° 0 mm 5 m/s 743 mmHg 70%
    21:00 +13°C° 0 mm 4 m/s 743 mmHg 73%
    22:00 +13°C° 0 mm 3 m/s 743 mmHg 74%
    23:00 +12°C° 0 mm 3 m/s 743 mmHg 75%

    Mâine, 26 Aprilie, Joi

    Timp Temperatura Precipitaţii Vânt Presiune Umiditate
    00:00 +13°C° 0 mm 2 m/s 743 mmHg 76%
    01:00 +13°C° 0 mm 2 m/s 742 mmHg 75%
    02:00 +13°C° 0 mm 2 m/s 742 mmHg 75%
    03:00 +13°C° 0 mm 1 m/s 742 mmHg 75%
    04:00 +13°C° 0 mm 1 m/s 742 mmHg 74%
    05:00 +13°C° 0 mm 1 m/s 743 mmHg 72%
    06:00 +14°C° 0 mm 1 m/s 743 mmHg 71%
    07:00 +15°C° 0 mm 1 m/s 743 mmHg 65%
    08:00 +18°C° 0 mm 1 m/s 743 mmHg 59%
    09:00 +19°C° 0 mm 1 m/s 744 mmHg 53%
    10:00 +19°C° 0 mm 2 m/s 743 mmHg 50%
    11:00 +20°C° 0 mm 2 m/s 743 mmHg 47%
    12:00 +21°C° 0 mm 2 m/s 743 mmHg 43%
    13:00 +22°C° 0 mm 3 m/s 743 mmHg 43%
    14:00 +22°C° 0 mm 3 m/s 743 mmHg 43%
    15:00 +22°C° 0 mm 4 m/s 742 mmHg 42%
    16:00 +21°C° 0 mm 4 m/s 742 mmHg 45%
    17:00 +20°C° 0 mm 3 m/s 742 mmHg 47%
    18:00 +19°C° 0 mm 3 m/s 742 mmHg 50%
    19:00 +19°C° 0 mm 2 m/s 742 mmHg 52%
    20:00 +18°C° 0 mm 2 m/s 743 mmHg 55%
    21:00 +18°C° 0 mm 1 m/s 743 mmHg 57%
    22:00 +18°C° 0 mm 1 m/s 743 mmHg 58%
    23:00 +16°C° 0 mm 1 m/s 743 mmHg 58%

    Poimâine, 27 Aprilie, Vineri

    Timp Temperatura Precipitaţii Vânt Presiune Umiditate
    00:00 +16°C° 0 mm 1 m/s 743 mmHg 59%
    01:00 +16°C° 0 mm 1 m/s 743 mmHg 58%
    02:00 +16°C° 0 mm 1 m/s 742 mmHg 58%
    03:00 +16°C° 0 mm 1 m/s 742 mmHg 58%
    04:00 +16°C° 0 mm 1 m/s 742 mmHg 56%
    05:00 +16°C° 0 mm 2 m/s 742 mmHg 55%
    06:00 +17°C° 0 mm 2 m/s 742 mmHg 54%
    07:00 +18°C° 0 mm 2 m/s 742 mmHg 48%
    08:00 +20°C° 0 mm 3 m/s 742 mmHg 43%
    09:00 +21°C° 0 mm 3 m/s 742 mmHg 38%
    10:00 +22°C° 0 mm 3 m/s 742 mmHg 35%
    11:00 +24°C° 0 mm 3 m/s 742 mmHg 33%
    12:00 +25°C° 0 mm 3 m/s 741 mmHg 31%
    13:00 +25°C° 0 mm 4 m/s 741 mmHg 30%
    14:00 +26°C° 0 mm 4 m/s 741 mmHg 30%
    15:00 +26°C° 0 mm 4 m/s 740 mmHg 29%
    16:00 +25°C° 0 mm 4 m/s 740 mmHg 32%
    17:00 +24°C° 0 mm 3 m/s 740 mmHg 34%
    18:00 +22°C° 0 mm 3 m/s 740 mmHg 37%
    19:00 +21°C° 0 mm 3 m/s 740 mmHg 38%
    20:00 +21°C° 0 mm 3 m/s 740 mmHg 39%
    21:00 +20°C° 0 mm 3 m/s 740 mmHg 39%
    22:00 +20°C° 0 mm 2 m/s 739 mmHg 41%
    23:00 +19°C° 0 mm 2 m/s 738 mmHg 42%

    28 Aprilie, Sâmbătă

    Timp Temperatura Precipitaţii Vânt Presiune Umiditate
    00:00 +19°C° 0 mm 2 m/s 738 mmHg 43%
    01:00 +19°C° 0 mm 2 m/s 738 mmHg 43%
    02:00 +18°C° 0 mm 2 m/s 737 mmHg 42%
    03:00 +18°C° 0 mm 2 m/s 737 mmHg 42%
    04:00 +18°C° 0 mm 2 m/s 737 mmHg 42%
    05:00 +19°C° 0 mm 2 m/s 737 mmHg 42%
    06:00 +19°C° 0 mm 2 m/s 737 mmHg 42%
    07:00 +20°C° 0 mm 2 m/s 738 mmHg 39%
    08:00 +23°C° 0 mm 2 m/s 738 mmHg 36%
    09:00 +24°C° 0 mm 2 m/s 738 mmHg 33%
    10:00 +24°C° 0 mm 3 m/s 738 mmHg 33%
    11:00 +25°C° 0 mm 4 m/s 739 mmHg 34%
    12:00 +26°C° 0 mm 5 m/s 739 mmHg 34%
    13:00 +26°C° 0 mm 6 m/s 739 mmHg 36%
    14:00 +24°C° 0 mm 7 m/s 739 mmHg 37%
    15:00 +24°C° 0 mm 9 m/s 739 mmHg 39%
    16:00 +23°C° 0 mm 9 m/s 739 mmHg 41%
    17:00 +23°C° 0 mm 9 m/s 739 mmHg 44%
    18:00 +22°C° 0 mm 9 m/s 739 mmHg 46%
    19:00 +21°C° 0 mm 8 m/s 740 mmHg 48%
    20:00 +21°C° 0 mm 7 m/s 740 mmHg 50%
    21:00 +20°C° 0 mm 7 m/s 741 mmHg 51%
    22:00 +20°C° 0 mm 6 m/s 741 mmHg 52%
    23:00 +19°C° 0 mm 5 m/s 741 mmHg 53%

    29 Aprilie, Duminică

    Timp Temperatura Precipitaţii Vânt Presiune Umiditate
    00:00 +19°C° 0 mm 5 m/s 740 mmHg 54%
    01:00 +19°C° 0 mm 5 m/s 741 mmHg 55%
    02:00 +19°C° 0 mm 5 m/s 741 mmHg 55%
    03:00 +18°C° 0 mm 4 m/s 741 mmHg 56%
    04:00 +17°C° 0 mm 5 m/s 741 mmHg 58%
    05:00 +17°C° 0 mm 6 m/s 742 mmHg 60%
    06:00 +17°C° 0 mm 6 m/s 742 mmHg 62%
    07:00 +18°C° 0 mm 7 m/s 742 mmHg 59%
    08:00 +20°C° 0 mm 8 m/s 743 mmHg 55%
    09:00 +21°C° 0 mm 9 m/s 743 mmHg 52%
    10:00 +21°C° 0 mm 9 m/s 743 mmHg 51%
    11:00 +21°C° 0 mm 10 m/s 743 mmHg 49%
    12:00 +22°C° 0 mm 10 m/s 743 mmHg 48%
    13:00 +21°C° 0 mm 10 m/s 743 mmHg 48%
    14:00 +21°C° 0 mm 11 m/s 743 mmHg 47%
    15:00 +21°C° 0 mm 11 m/s 743 mmHg 47%
    16:00 +19°C° 0 mm 11 m/s 743 mmHg 47%
    17:00 +18°C° 0 mm 11 m/s 743 mmHg 47%
    18:00 +17°C° 0 mm 11 m/s 744 mmHg 47%
    19:00 +16°C° 0 mm 11 m/s 744 mmHg 47%
    20:00 +14°C° 0 mm 10 m/s 744 mmHg 47%
    21:00 +14°C° 0 mm 10 m/s 745 mmHg 46%
    22:00 +13°C° 0 mm 9 m/s 745 mmHg 46%
    23:00 +13°C° 0 mm 9 m/s 744 mmHg 46%

    30 Aprilie, Luni

    Timp Temperatura Precipitaţii Vânt Presiune Umiditate
    00:00 +13°C° 0 mm 8 m/s 744 mmHg 46%
    01:00 +12°C° 0 mm 7 m/s 744 mmHg 47%
    02:00 +12°C° 0 mm 7 m/s 744 mmHg 47%
    03:00 +13°C° 0 mm 6 m/s 744 mmHg 48%
    04:00 +13°C° 0 mm 6 m/s 745 mmHg 48%
    05:00 +13°C° 0 mm 5 m/s 745 mmHg 48%
    06:00 +13°C° 0 mm 5 m/s 745 mmHg 48%
    07:00 +14°C° 0 mm 5 m/s 745 mmHg 44%
    08:00 +15°C° 0 mm 5 m/s 745 mmHg 41%
    09:00 +17°C° 0 mm 5 m/s 746 mmHg 37%
    10:00 +17°C° 0 mm 5 m/s 745 mmHg 36%
    11:00 +19°C° 0 mm 4 m/s 745 mmHg 34%
    12:00 +20°C° 0 mm 4 m/s 745 mmHg 33%
    13:00 +20°C° 0 mm 4 m/s 744 mmHg 34%
    14:00 +20°C° 0 mm 4 m/s 744 mmHg 34%
    15:00 +20°C° 0 mm 4 m/s 744 mmHg 34%
    16:00 +20°C° 0 mm 3 m/s 743 mmHg 36%
    17:00 +19°C° 0 mm 3 m/s 743 mmHg 38%
    18:00 +18°C° 0 mm 3 m/s 743 mmHg 40%
    19:00 +18°C° 0 mm 2 m/s 743 mmHg 43%
    20:00 +18°C° 0 mm 1 m/s 744 mmHg 46%
    21:00 +16°C° 0 mm 1 m/s 744 mmHg 49%
    22:00 +16°C° 0 mm 1 m/s 743 mmHg 51%
    23:00 +14°C° 0 mm 0 m/s 743 mmHg 52%
    Arată mai mult